Retour au catalogue

STARLINK-34481

ActifCommunicationsVLEO
NORAD 65104·PAYLOAD·🇺🇸 United States

Lancé Aug 4, 2025 depuis Cape Canaveral Space Force Station

Loading…

Prochains Passages (prochaines 24 heures)

TLE

FraisSource: CelesTrak SupGP

Époque: Sep 14, 2026, 22:51 UTC

1 65104C 25167AC  26257.95256944  .00005604  00000+0  16551-3 0  2575
2 65104  53.1574 219.7917 0001536 102.3973 341.6073 15.34396267    10

Suivez STARLINK-34481 en temps réel avec AllMySat

Download on the App Store